owner,sensor,date,latitude,longitude,vertical_datum,wind_speed,wind_to_direction,wind_speed_of_gust,qcFlag 
TCOON,ioos:station:TCOON:009:1,2008-06-01T00:00:00Z,27.8398,-97.0727,0.0,5.5,135.0,8.4,'11111222,11111222,11111222' 
TCOON,ioos:station:TCOON:009:1,2008-06-01T01:00:00Z,27.8398,-97.0727,0.0,5.2,142.0,8.5,'11111222,11111222,11111222' 
TCOON,ioos:station:TCOON:009:1,2008-06-01T02:00:00Z,27.8398,-97.0727,0.0,4.6,147.0,6.8,'11111222,11111222,11111222' 
TCOON,ioos:station:TCOON:009:1,2008-06-01T03:00:00Z,27.8398,-97.0727,0.0,4.4,157.0,7.1,'11111222,11111222,11111222' 
TCOON,ioos:station:TCOON:009:1,2008-06-01T04:00:00Z,27.8398,-97.0727,0.0,5.4,151.0,8.2,'11111222,11111222,11111222' 
TCOON,ioos:station:TCOON:009:1,2008-06-01T05:00:00Z,27.8398,-97.0727,0.0,4.8,150.0,7.8,'11111222,11111222,11111222' 
TCOON,ioos:station:TCOON:009:1,2008-06-01T06:00:00Z,27.8398,-97.0727,0.0,3.8,155.0,6.2,'11111222,11111222,11111222' 
TCOON,ioos:station:TCOON:009:1,2008-06-01T07:00:00Z,27.8398,-97.0727,0.0,3.5,153.0,6.2,'11111222,11111222,11111222' 
TCOON,ioos:station:TCOON:009:1,2008-06-01T08:00:00Z,27.8398,-97.0727,0.0,4.4,162.0,7.0,'11111222,11111222,11111222' 
TCOON,ioos:station:TCOON:009:1,2008-06-01T09:00:00Z,27.8398,-97.0727,0.0,2.9,171.0,4.4,'11111222,11111222,11111222' 
TCOON,ioos:station:TCOON:009:1,2008-06-01T10:00:00Z,27.8398,-97.0727,0.0,3.8,166.0,6.3,'11111222,11111222,11111222' 
TCOON,ioos:station:TCOON:009:1,2008-06-01T11:00:00Z,27.8398,-97.0727,0.0,4.7,175.0,6.3,'11111222,11111222,11111222' 
TCOON,ioos:station:TCOON:009:1,2008-06-01T12:00:00Z,27.8398,-97.0727,0.0,2.6,177.0,4.9,'11111222,11111222,11111222' 
TCOON,ioos:station:TCOON:009:1,2008-06-01T13:00:00Z,27.8398,-97.0727,0.0,3.6,168.0,5.1,'11111222,11111222,11111222' 
TCOON,ioos:station:TCOON:009:1,2008-06-01T14:00:00Z,27.8398,-97.0727,0.0,4.3,175.0,6.6,'11111222,11111222,11111222' 
TCOON,ioos:station:TCOON:009:1,2008-06-01T15:00:00Z,27.8398,-97.0727,0.0,5.3,173.0,7.4,'11111222,11111222,11111222' 
TCOON,ioos:station:TCOON:009:1,2008-06-01T16:00:00Z,27.8398,-97.0727,0.0,4.9,160.0,7.6,'11111222,11111222,11111222' 
TCOON,ioos:station:TCOON:009:1,2008-06-01T17:00:00Z,27.8398,-97.0727,0.0,5.2,153.0,8.7,'11111222,11111222,11111222' 
TCOON,ioos:station:TCOON:009:1,2008-06-01T18:00:00Z,27.8398,-97.0727,0.0,4.2,160.0,7.4,'11111222,11111222,11111222' 
TCOON,ioos:station:TCOON:009:1,2008-06-01T19:00:00Z,27.8398,-97.0727,0.0,4.0,154.0,5.9,'11111222,11111222,11111222' 
TCOON,ioos:station:TCOON:009:1,2008-06-01T20:00:00Z,27.8398,-97.0727,0.0,3.5,137.0,5.8,'11111222,11111222,11111222' 
TCOON,ioos:station:TCOON:009:1,2008-06-01T21:00:00Z,27.8398,-97.0727,0.0,5.5,134.0,7.8,'11111222,11111222,11111222' 
TCOON,ioos:station:TCOON:009:1,2008-06-01T22:00:00Z,27.8398,-97.0727,0.0,6.9,124.0,8.4,'11111222,11111222,11111222' 
TCOON,ioos:station:TCOON:009:1,2008-06-01T23:00:00Z,27.8398,-97.0727,0.0,4.8,116.0,6.9,'11111222,11111222,11111222' 
TCOON,ioos:station:TCOON:009:1,2008-06-02T00:00:00Z,27.8398,-97.0727,0.0,6.8,123.0,9.0,'11111222,11111222,11111222' 
TCOON,ioos:station:TCOON:009:1,2008-06-02T01:00:00Z,27.8398,-97.0727,0.0,6.7,127.0,8.7,'11111222,11111222,11111222' 
TCOON,ioos:station:TCOON:009:1,2008-06-02T02:00:00Z,27.8398,-97.0727,0.0,7.1,129.0,9.3,'11111222,11111222,11111222' 
TCOON,ioos:station:TCOON:009:1,2008-06-02T03:00:00Z,27.8398,-97.0727,0.0,4.8,137.0,7.3,'11111222,11111222,11111222' 
TCOON,ioos:station:TCOON:009:1,2008-06-02T04:00:00Z,27.8398,-97.0727,0.0,4.1,147.0,6.7,'11111222,11111222,11111222' 
TCOON,ioos:station:TCOON:009:1,2008-06-02T05:00:00Z,27.8398,-97.0727,0.0,4.1,155.0,6.7,'11111222,11111222,11111222' 
TCOON,ioos:station:TCOON:009:1,2008-06-02T06:00:00Z,27.8398,-97.0727,0.0,4.2,167.0,7.2,'11111222,11111222,11111222' 
TCOON,ioos:station:TCOON:009:1,2008-06-02T07:00:00Z,27.8398,-97.0727,0.0,4.2,176.0,6.3,'11111222,11111222,11111222' 
TCOON,ioos:station:TCOON:009:1,2008-06-02T08:00:00Z,27.8398,-97.0727,0.0,3.6,168.0,5.9,'11111222,11111222,11111222' 
TCOON,ioos:station:TCOON:009:1,2008-06-02T09:00:00Z,27.8398,-97.0727,0.0,3.7,171.0,6.7,'11111222,11111222,11111222' 
TCOON,ioos:station:TCOON:009:1,2008-06-02T10:00:00Z,27.8398,-97.0727,0.0,4.4,178.0,6.1,'11111222,11111222,11111222' 
TCOON,ioos:station:TCOON:009:1,2008-06-02T11:00:00Z,27.8398,-97.0727,0.0,5.1,183.0,7.1,'11111222,11111222,11111222' 
TCOON,ioos:station:TCOON:009:1,2008-06-02T12:00:00Z,27.8398,-97.0727,0.0,3.1,179.0,4.4,'11111222,11111222,11111222' 
TCOON,ioos:station:TCOON:009:1,2008-06-02T13:00:00Z,27.8398,-97.0727,0.0,3.6,171.0,5.6,'11111222,11111222,11111222' 
TCOON,ioos:station:TCOON:009:1,2008-06-02T14:00:00Z,27.8398,-97.0727,0.0,4.2,173.0,7.0,'11111222,11111222,11111222' 
TCOON,ioos:station:TCOON:009:1,2008-06-02T15:00:00Z,27.8398,-97.0727,0.0,4.8,174.0,7.9,'11111222,11111222,11111222' 
TCOON,ioos:station:TCOON:009:1,2008-06-02T16:00:00Z,27.8398,-97.0727,0.0,4.2,160.0,6.5,'11111222,11111222,11111222' 
TCOON,ioos:station:TCOON:009:1,2008-06-02T17:00:00Z,27.8398,-97.0727,0.0,4.4,145.0,6.7,'11111222,11111222,11111222' 
TCOON,ioos:station:TCOON:009:1,2008-06-02T18:00:00Z,27.8398,-97.0727,0.0,5.3,158.0,7.3,'11111222,11111222,11111222' 
TCOON,ioos:station:TCOON:009:1,2008-06-02T19:00:00Z,27.8398,-97.0727,0.0,4.7,175.0,7.3,'11111222,11111222,11111222' 
TCOON,ioos:station:TCOON:009:1,2008-06-02T20:00:00Z,27.8398,-97.0727,0.0,6.3,164.0,8.5,'11111222,11111222,11111222' 
TCOON,ioos:station:TCOON:009:1,2008-06-02T21:00:00Z,27.8398,-97.0727,0.0,5.3,136.0,9.0,'11111222,11111222,11111222' 
TCOON,ioos:station:TCOON:009:1,2008-06-02T22:00:00Z,27.8398,-97.0727,0.0,5.5,156.0,8.2,'11111222,11111222,11111222' 
TCOON,ioos:station:TCOON:009:1,2008-06-02T23:00:00Z,27.8398,-97.0727,0.0,6.0,136.0,8.8,'11111222,11111222,11111222' 
TCOON,ioos:station:TCOON:009:1,2008-06-03T00:00:00Z,27.8398,-97.0727,0.0,6.3,138.0,9.4,'11111222,11111222,11111222' 
TCOON,ioos:station:TCOON:009:1,2008-06-03T01:00:00Z,27.8398,-97.0727,0.0,5.5,144.0,7.9,'11111222,11111222,11111222' 
TCOON,ioos:station:TCOON:009:1,2008-06-03T02:00:00Z,27.8398,-97.0727,0.0,4.1,149.0,7.2,'11111222,11111222,11111222' 
TCOON,ioos:station:TCOON:009:1,2008-06-03T03:00:00Z,27.8398,-97.0727,0.0,4.6,150.0,6.8,'11111222,11111222,11111222' 
TCOON,ioos:station:TCOON:009:1,2008-06-03T04:00:00Z,27.8398,-97.0727,0.0,4.8,151.0,8.5,'11111222,11111222,11111222' 
TCOON,ioos:station:TCOON:009:1,2008-06-03T05:00:00Z,27.8398,-97.0727,0.0,4.4,157.0,8.5,'11111222,11111222,11111222' 
TCOON,ioos:station:TCOON:009:1,2008-06-03T06:00:00Z,27.8398,-97.0727,0.0,4.6,159.0,7.8,'11111222,11111222,11111222' 
TCOON,ioos:station:TCOON:009:1,2008-06-03T07:00:00Z,27.8398,-97.0727,0.0,2.6,167.0,4.3,'11111222,11111222,11111222' 
TCOON,ioos:station:TCOON:009:1,2008-06-03T08:00:00Z,27.8398,-97.0727,0.0,3.9,175.0,5.6,'11111222,11111222,11111222' 
TCOON,ioos:station:TCOON:009:1,2008-06-03T09:00:00Z,27.8398,-97.0727,0.0,4.8,175.0,9.1,'11111222,11111222,11111222' 
TCOON,ioos:station:TCOON:009:1,2008-06-03T10:00:00Z,27.8398,-97.0727,0.0,5.6,180.0,7.8,'11111222,11111222,11111222' 
TCOON,ioos:station:TCOON:009:1,2008-06-03T11:00:00Z,27.8398,-97.0727,0.0,6.6,186.0,9.3,'11111222,11111222,11111222' 
TCOON,ioos:station:TCOON:009:1,2008-06-03T12:00:00Z,27.8398,-97.0727,0.0,5.7,185.0,8.5,'11111222,11111222,11111222' 
TCOON,ioos:station:TCOON:009:1,2008-06-03T13:00:00Z,27.8398,-97.0727,0.0,5.6,177.0,8.3,'11111222,11111222,11111222' 
TCOON,ioos:station:TCOON:009:1,2008-06-03T14:00:00Z,27.8398,-97.0727,0.0,6.8,172.0,10.9,'11111222,11111222,11111222' 
TCOON,ioos:station:TCOON:009:1,2008-06-03T15:00:00Z,27.8398,-97.0727,0.0,7.1,186.0,9.6,'11111222,11111222,11111222' 
TCOON,ioos:station:TCOON:009:1,2008-06-03T16:00:00Z,27.8398,-97.0727,0.0,6.4,185.0,9.7,'11111222,11111222,11111222' 
TCOON,ioos:station:TCOON:009:1,2008-06-03T17:00:00Z,27.8398,-97.0727,0.0,6.0,170.0,9.1,'11111222,11111222,11111222' 
TCOON,ioos:station:TCOON:009:1,2008-06-03T18:00:00Z,27.8398,-97.0727,0.0,7.0,180.0,9.1,'11111222,11111222,11111222' 
TCOON,ioos:station:TCOON:009:1,2008-06-03T19:00:00Z,27.8398,-97.0727,0.0,6.5,172.0,9.4,'11111222,11111222,11111222' 
TCOON,ioos:station:TCOON:009:1,2008-06-03T20:00:00Z,27.8398,-97.0727,0.0,5.7,175.0,9.4,'11111222,11111222,11111222' 
TCOON,ioos:station:TCOON:009:1,2008-06-03T21:00:00Z,27.8398,-97.0727,0.0,5.7,166.0,9.0,'11111222,11111222,11111222' 
TCOON,ioos:station:TCOON:009:1,2008-06-03T22:00:00Z,27.8398,-97.0727,0.0,7.1,151.0,11.1,'11111222,11111222,11111222' 
TCOON,ioos:station:TCOON:009:1,2008-06-03T23:00:00Z,27.8398,-97.0727,0.0,4.3,158.0,7.3,'11111222,11111222,11111222' 
TCOON,ioos:station:TCOON:009:1,2008-06-04T00:00:00Z,27.8398,-97.0727,0.0,5.3,154.0,8.9,'11111222,11111222,11111222' 
TCOON,ioos:station:TCOON:009:1,2008-06-04T01:00:00Z,27.8398,-97.0727,0.0,5.8,153.0,9.8,'11111222,11111222,11111222' 
TCOON,ioos:station:TCOON:009:1,2008-06-04T02:00:00Z,27.8398,-97.0727,0.0,6.5,151.0,9.5,'11111222,11111222,11111222' 
TCOON,ioos:station:TCOON:009:1,2008-06-04T03:00:00Z,27.8398,-97.0727,0.0,7.1,152.0,10.0,'11111222,11111222,11111222' 
TCOON,ioos:station:TCOON:009:1,2008-06-04T04:00:00Z,27.8398,-97.0727,0.0,5.8,155.0,9.4,'11111222,11111222,11111222' 
TCOON,ioos:station:TCOON:009:1,2008-06-04T05:00:00Z,27.8398,-97.0727,0.0,4.9,160.0,7.7,'11111222,11111222,11111222' 
TCOON,ioos:station:TCOON:009:1,2008-06-04T06:00:00Z,27.8398,-97.0727,0.0,5.4,171.0,11.8,'11111222,11111222,11111222' 
TCOON,ioos:station:TCOON:009:1,2008-06-04T07:00:00Z,27.8398,-97.0727,0.0,7.5,177.0,10.5,'11111222,11111222,11111222' 
TCOON,ioos:station:TCOON:009:1,2008-06-04T08:00:00Z,27.8398,-97.0727,0.0,6.9,178.0,10.9,'11111222,11111222,11111222' 
TCOON,ioos:station:TCOON:009:1,2008-06-04T09:00:00Z,27.8398,-97.0727,0.0,8.2,175.0,13.8,'11111222,11111222,11111222' 
TCOON,ioos:station:TCOON:009:1,2008-06-04T10:00:00Z,27.8398,-97.0727,0.0,6.5,179.0,9.9,'11111222,11111222,11111222' 
TCOON,ioos:station:TCOON:009:1,2008-06-04T11:00:00Z,27.8398,-97.0727,0.0,6.9,175.0,11.3,'11111222,11111222,11111222' 
TCOON,ioos:station:TCOON:009:1,2008-06-04T12:00:00Z,27.8398,-97.0727,0.0,5.1,182.0,7.4,'11111222,11111222,11111222' 
TCOON,ioos:station:TCOON:009:1,2008-06-04T13:00:00Z,27.8398,-97.0727,0.0,4.2,180.0,8.5,'11111222,11111222,11111222' 
TCOON,ioos:station:TCOON:009:1,2008-06-04T14:00:00Z,27.8398,-97.0727,0.0,6.7,177.0,10.8,'11111222,11111222,11111222' 
TCOON,ioos:station:TCOON:009:1,2008-06-04T15:00:00Z,27.8398,-97.0727,0.0,5.1,176.0,9.2,'11111222,11111222,11111222' 
TCOON,ioos:station:TCOON:009:1,2008-06-04T16:00:00Z,27.8398,-97.0727,0.0,6.8,176.0,10.6,'11111222,11111222,11111222' 
TCOON,ioos:station:TCOON:009:1,2008-06-04T17:00:00Z,27.8398,-97.0727,0.0,8.6,178.0,12.0,'11111222,11111222,11111222' 
TCOON,ioos:station:TCOON:009:1,2008-06-04T18:00:00Z,27.8398,-97.0727,0.0,7.5,163.0,10.8,'11111222,11111222,11111222' 
TCOON,ioos:station:TCOON:009:1,2008-06-04T19:00:00Z,27.8398,-97.0727,0.0,5.5,163.0,10.3,'11111222,11111222,11111222' 
TCOON,ioos:station:TCOON:009:1,2008-06-04T20:00:00Z,27.8398,-97.0727,0.0,9.4,151.0,12.5,'11111222,11111222,11111222' 
TCOON,ioos:station:TCOON:009:1,2008-06-04T21:00:00Z,27.8398,-97.0727,0.0,7.7,154.0,12.1,'11111222,11111222,11111222' 
TCOON,ioos:station:TCOON:009:1,2008-06-04T22:00:00Z,27.8398,-97.0727,0.0,7.0,159.0,12.7,'11111222,11111222,11111222' 
TCOON,ioos:station:TCOON:009:1,2008-06-04T23:00:00Z,27.8398,-97.0727,0.0,6.1,153.0,10.7,'11111222,11111222,11111222' 
TCOON,ioos:station:TCOON:009:1,2008-06-05T00:00:00Z,27.8398,-97.0727,0.0,5.0,153.0,13.3,'11111222,11111222,11111222' 
TCOON,ioos:station:TCOON:009:1,2008-06-05T01:00:00Z,27.8398,-97.0727,0.0,6.0,151.0,9.6,'11111222,11111222,11111222' 
TCOON,ioos:station:TCOON:009:1,2008-06-05T02:00:00Z,27.8398,-97.0727,0.0,5.8,151.0,9.8,'11111222,11111222,11111222' 
TCOON,ioos:station:TCOON:009:1,2008-06-05T03:00:00Z,27.8398,-97.0727,0.0,7.3,150.0,12.7,'11111222,11111222,11111222' 
TCOON,ioos:station:TCOON:009:1,2008-06-05T04:00:00Z,27.8398,-97.0727,0.0,7.3,154.0,99.0,'11111222,11111222,11144222' 
TCOON,ioos:station:TCOON:009:1,2008-06-05T05:00:00Z,27.8398,-97.0727,0.0,5.1,156.0,7.5,'11111222,11111222,11111222' 
TCOON,ioos:station:TCOON:009:1,2008-06-05T06:00:00Z,27.8398,-97.0727,0.0,6.7,162.0,10.6,'11111222,11111222,11111222' 
TCOON,ioos:station:TCOON:009:1,2008-06-05T07:00:00Z,27.8398,-97.0727,0.0,8.2,155.0,13.0,'11111222,11111222,11111222' 
TCOON,ioos:station:TCOON:009:1,2008-06-05T08:00:00Z,27.8398,-97.0727,0.0,6.5,165.0,10.2,'11111222,11111222,11111222' 
TCOON,ioos:station:TCOON:009:1,2008-06-05T09:00:00Z,27.8398,-97.0727,0.0,7.1,176.0,11.6,'11111222,11111222,11111222' 
TCOON,ioos:station:TCOON:009:1,2008-06-05T10:00:00Z,27.8398,-97.0727,0.0,7.9,168.0,14.8,'11111222,11111222,11111222' 
TCOON,ioos:station:TCOON:009:1,2008-06-05T11:00:00Z,27.8398,-97.0727,0.0,8.1,159.0,13.6,'11111222,11111222,11111222' 
TCOON,ioos:station:TCOON:009:1,2008-06-05T12:00:00Z,27.8398,-97.0727,0.0,6.7,157.0,33.4,'11111222,11111222,11111222' 
TCOON,ioos:station:TCOON:009:1,2008-06-05T13:00:00Z,27.8398,-97.0727,0.0,6.0,161.0,10.9,'11111222,11111222,11111222' 
TCOON,ioos:station:TCOON:009:1,2008-06-05T14:00:00Z,27.8398,-97.0727,0.0,5.6,151.0,9.5,'11111222,11111222,11111222' 
TCOON,ioos:station:TCOON:009:1,2008-06-05T15:00:00Z,27.8398,-97.0727,0.0,6.3,155.0,10.2,'11111222,11111222,11111222' 
TCOON,ioos:station:TCOON:009:1,2008-06-05T16:00:00Z,27.8398,-97.0727,0.0,5.5,151.0,9.6,'11111222,11111222,11111222' 
TCOON,ioos:station:TCOON:009:1,2008-06-05T17:00:00Z,27.8398,-97.0727,0.0,6.2,148.0,9.8,'11111222,11111222,11111222' 
TCOON,ioos:station:TCOON:009:1,2008-06-05T18:00:00Z,27.8398,-97.0727,0.0,7.8,148.0,11.7,'11111222,11111222,11111222' 
TCOON,ioos:station:TCOON:009:1,2008-06-05T19:00:00Z,27.8398,-97.0727,0.0,8.0,153.0,12.9,'11111222,11111222,11111222' 
TCOON,ioos:station:TCOON:009:1,2008-06-05T20:00:00Z,27.8398,-97.0727,0.0,7.3,146.0,11.1,'11111222,11111222,11111222' 
TCOON,ioos:station:TCOON:009:1,2008-06-05T21:00:00Z,27.8398,-97.0727,0.0,7.1,151.0,13.0,'11111222,11111222,11111222' 
TCOON,ioos:station:TCOON:009:1,2008-06-05T22:00:00Z,27.8398,-97.0727,0.0,6.8,148.0,9.7,'11111222,11111222,11111222' 
TCOON,ioos:station:TCOON:009:1,2008-06-05T23:00:00Z,27.8398,-97.0727,0.0,7.3,152.0,10.2,'11111222,11111222,11111222' 
TCOON,ioos:station:TCOON:009:1,2008-06-06T00:00:00Z,27.8398,-97.0727,0.0,7.0,151.0,11.1,'11111222,11111222,11111222' 
TCOON,ioos:station:TCOON:009:1,2008-06-06T01:00:00Z,27.8398,-97.0727,0.0,6.2,144.0,9.9,'11111222,11111222,11111222' 
TCOON,ioos:station:TCOON:009:1,2008-06-06T02:00:00Z,27.8398,-97.0727,0.0,5.2,149.0,8.6,'11111222,11111222,11111222' 
TCOON,ioos:station:TCOON:009:1,2008-06-06T03:00:00Z,27.8398,-97.0727,0.0,6.4,146.0,8.9,'11111222,11111222,11111222' 
TCOON,ioos:station:TCOON:009:1,2008-06-06T04:00:00Z,27.8398,-97.0727,0.0,6.4,146.0,10.8,'11111222,11111222,11111222' 
TCOON,ioos:station:TCOON:009:1,2008-06-06T05:00:00Z,27.8398,-97.0727,0.0,6.5,148.0,10.1,'11111222,11111222,11111222' 
TCOON,ioos:station:TCOON:009:1,2008-06-06T06:00:00Z,27.8398,-97.0727,0.0,7.1,151.0,10.1,'11111222,11111222,11111222' 
TCOON,ioos:station:TCOON:009:1,2008-06-06T07:00:00Z,27.8398,-97.0727,0.0,5.6,153.0,9.5,'11111222,11111222,11111222' 
TCOON,ioos:station:TCOON:009:1,2008-06-06T08:00:00Z,27.8398,-97.0727,0.0,4.9,153.0,8.0,'11111222,11111222,11111222' 
TCOON,ioos:station:TCOON:009:1,2008-06-06T09:00:00Z,27.8398,-97.0727,0.0,5.5,155.0,12.5,'11111222,11111222,11111222' 
TCOON,ioos:station:TCOON:009:1,2008-06-06T10:00:00Z,27.8398,-97.0727,0.0,6.2,158.0,9.8,'11111222,11111222,11111222' 
TCOON,ioos:station:TCOON:009:1,2008-06-06T11:00:00Z,27.8398,-97.0727,0.0,4.7,152.0,7.9,'11111222,11111222,11111222' 
TCOON,ioos:station:TCOON:009:1,2008-06-06T12:00:00Z,27.8398,-97.0727,0.0,4.9,152.0,7.6,'11111222,11111222,11111222' 
TCOON,ioos:station:TCOON:009:1,2008-06-06T13:00:00Z,27.8398,-97.0727,0.0,5.3,151.0,7.7,'11111222,11111222,11111222' 
TCOON,ioos:station:TCOON:009:1,2008-06-06T14:00:00Z,27.8398,-97.0727,0.0,4.5,149.0,7.7,'11111222,11111222,11111222' 
TCOON,ioos:station:TCOON:009:1,2008-06-06T15:00:00Z,27.8398,-97.0727,0.0,4.3,143.0,7.4,'11111222,11111222,11111222' 
TCOON,ioos:station:TCOON:009:1,2008-06-06T16:00:00Z,27.8398,-97.0727,0.0,5.1,138.0,8.2,'11111222,11111222,11111222' 
TCOON,ioos:station:TCOON:009:1,2008-06-06T17:00:00Z,27.8398,-97.0727,0.0,5.8,132.0,8.3,'11111222,11111222,11111222' 
TCOON,ioos:station:TCOON:009:1,2008-06-06T18:00:00Z,27.8398,-97.0727,0.0,6.6,127.0,10.3,'11111222,11111222,11111222' 
TCOON,ioos:station:TCOON:009:1,2008-06-06T19:00:00Z,27.8398,-97.0727,0.0,7.1,131.0,8.6,'11111222,11111222,11111222' 
TCOON,ioos:station:TCOON:009:1,2008-06-06T20:00:00Z,27.8398,-97.0727,0.0,7.1,124.0,9.4,'11111222,11111222,11111222' 
TCOON,ioos:station:TCOON:009:1,2008-06-06T21:00:00Z,27.8398,-97.0727,0.0,8.8,125.0,11.1,'11111222,11111222,11111222' 
TCOON,ioos:station:TCOON:009:1,2008-06-06T22:00:00Z,27.8398,-97.0727,0.0,7.2,134.0,9.7,'11111222,11111222,11111222' 
TCOON,ioos:station:TCOON:009:1,2008-06-06T23:00:00Z,27.8398,-97.0727,0.0,6.0,127.0,8.2,'11111222,11111222,11111222' 
TCOON,ioos:station:TCOON:009:1,2008-06-07T00:00:00Z,27.8398,-97.0727,0.0,6.6,131.0,9.1,'11111222,11111222,11111222' 
TCOON,ioos:station:TCOON:009:1,2008-06-07T01:00:00Z,27.8398,-97.0727,0.0,5.8,131.0,8.1,'11111222,11111222,11111222' 
TCOON,ioos:station:TCOON:009:1,2008-06-07T02:00:00Z,27.8398,-97.0727,0.0,5.1,133.0,7.1,'11111222,11111222,11111222' 
TCOON,ioos:station:TCOON:009:1,2008-06-07T03:00:00Z,27.8398,-97.0727,0.0,5.8,130.0,9.3,'11111222,11111222,11111222' 
TCOON,ioos:station:TCOON:009:1,2008-06-07T04:00:00Z,27.8398,-97.0727,0.0,5.6,126.0,7.2,'11111222,11111222,11111222' 
TCOON,ioos:station:TCOON:009:1,2008-06-07T05:00:00Z,27.8398,-97.0727,0.0,5.2,132.0,7.5,'11111222,11111222,11111222' 
TCOON,ioos:station:TCOON:009:1,2008-06-07T06:00:00Z,27.8398,-97.0727,0.0,6.1,137.0,8.8,'11111222,11111222,11111222' 
TCOON,ioos:station:TCOON:009:1,2008-06-07T07:00:00Z,27.8398,-97.0727,0.0,5.7,132.0,8.0,'11111222,11111222,11111222' 
TCOON,ioos:station:TCOON:009:1,2008-06-07T08:00:00Z,27.8398,-97.0727,0.0,5.7,132.0,7.8,'11111222,11111222,11111222' 
TCOON,ioos:station:TCOON:009:1,2008-06-07T09:00:00Z,27.8398,-97.0727,0.0,4.5,141.0,6.3,'11111222,11111222,11111222' 
TCOON,ioos:station:TCOON:009:1,2008-06-07T10:00:00Z,27.8398,-97.0727,0.0,5.0,144.0,8.0,'11111222,11111222,11111222' 
TCOON,ioos:station:TCOON:009:1,2008-06-07T11:00:00Z,27.8398,-97.0727,0.0,5.1,141.0,8.8,'11111222,11111222,11111222' 
TCOON,ioos:station:TCOON:009:1,2008-06-07T12:00:00Z,27.8398,-97.0727,0.0,4.3,135.0,8.1,'11111222,11111222,11111222' 
TCOON,ioos:station:TCOON:009:1,2008-06-07T13:00:00Z,27.8398,-97.0727,0.0,6.9,129.0,9.6,'11111222,11111222,11111222' 
TCOON,ioos:station:TCOON:009:1,2008-06-07T14:00:00Z,27.8398,-97.0727,0.0,5.9,130.0,8.4,'11111222,11111222,11111222' 
TCOON,ioos:station:TCOON:009:1,2008-06-07T15:00:00Z,27.8398,-97.0727,0.0,6.0,140.0,9.1,'11111222,11111222,11111222' 
TCOON,ioos:station:TCOON:009:1,2008-06-07T16:00:00Z,27.8398,-97.0727,0.0,5.7,135.0,8.4,'11111222,11111222,11111222' 
TCOON,ioos:station:TCOON:009:1,2008-06-07T17:00:00Z,27.8398,-97.0727,0.0,4.9,131.0,7.8,'11111222,11111222,11111222' 
TCOON,ioos:station:TCOON:009:1,2008-06-07T18:00:00Z,27.8398,-97.0727,0.0,5.1,133.0,7.2,'11111222,11111222,11111222' 
TCOON,ioos:station:TCOON:009:1,2008-06-07T19:00:00Z,27.8398,-97.0727,0.0,6.6,130.0,8.7,'11111222,11111222,11111222' 
TCOON,ioos:station:TCOON:009:1,2008-06-07T20:00:00Z,27.8398,-97.0727,0.0,6.1,153.0,8.1,'11111222,11111222,11111222' 
TCOON,ioos:station:TCOON:009:1,2008-06-07T21:00:00Z,27.8398,-97.0727,0.0,6.3,125.0,8.3,'11111222,11111222,11111222' 
TCOON,ioos:station:TCOON:009:1,2008-06-07T22:00:00Z,27.8398,-97.0727,0.0,6.5,134.0,8.2,'11111222,11111222,11111222' 
TCOON,ioos:station:TCOON:009:1,2008-06-07T23:00:00Z,27.8398,-97.0727,0.0,5.6,125.0,8.7,'11111222,11111222,11111222' 
TCOON,ioos:station:TCOON:009:1,2008-06-08T00:00:00Z,27.8398,-97.0727,0.0,5.9,130.0,7.5,'11111222,11111222,11111222' 
TCOON,ioos:station:TCOON:009:1,2008-06-08T01:00:00Z,27.8398,-97.0727,0.0,5.1,131.0,6.3,'11111222,11111222,11111222' 
TCOON,ioos:station:TCOON:009:1,2008-06-08T02:00:00Z,27.8398,-97.0727,0.0,6.4,132.0,8.7,'11111222,11111222,11111222' 
TCOON,ioos:station:TCOON:009:1,2008-06-08T03:00:00Z,27.8398,-97.0727,0.0,4.8,137.0,8.4,'11111222,11111222,11111222' 
TCOON,ioos:station:TCOON:009:1,2008-06-08T04:00:00Z,27.8398,-97.0727,0.0,5.8,142.0,99.0,'11111222,11111222,11144222' 
TCOON,ioos:station:TCOON:009:1,2008-06-08T05:00:00Z,27.8398,-97.0727,0.0,5.0,148.0,9.0,'11111222,11111222,11111222' 
TCOON,ioos:station:TCOON:009:1,2008-06-08T06:00:00Z,27.8398,-97.0727,0.0,4.3,152.0,7.1,'11111222,11111222,11111222' 
TCOON,ioos:station:TCOON:009:1,2008-06-08T07:00:00Z,27.8398,-97.0727,0.0,4.1,146.0,7.0,'11111222,11111222,11111222' 
TCOON,ioos:station:TCOON:009:1,2008-06-08T08:00:00Z,27.8398,-97.0727,0.0,5.0,154.0,8.5,'11111222,11111222,11111222' 
TCOON,ioos:station:TCOON:009:1,2008-06-08T09:00:00Z,27.8398,-97.0727,0.0,5.1,147.0,8.1,'11111222,11111222,11111222' 
TCOON,ioos:station:TCOON:009:1,2008-06-08T10:00:00Z,27.8398,-97.0727,0.0,4.0,160.0,6.7,'11111222,11111222,11111222' 
TCOON,ioos:station:TCOON:009:1,2008-06-08T11:00:00Z,27.8398,-97.0727,0.0,4.5,154.0,6.9,'11111222,11111222,11111222' 
TCOON,ioos:station:TCOON:009:1,2008-06-08T12:00:00Z,27.8398,-97.0727,0.0,2.9,156.0,4.3,'11111222,11111222,11111222' 
TCOON,ioos:station:TCOON:009:1,2008-06-08T13:00:00Z,27.8398,-97.0727,0.0,4.8,154.0,7.1,'11111222,11111222,11111222' 
TCOON,ioos:station:TCOON:009:1,2008-06-08T14:00:00Z,27.8398,-97.0727,0.0,4.9,163.0,7.0,'11111222,11111222,11111222' 
TCOON,ioos:station:TCOON:009:1,2008-06-08T15:00:00Z,27.8398,-97.0727,0.0,4.5,145.0,6.6,'11111222,11111222,11111222' 
TCOON,ioos:station:TCOON:009:1,2008-06-08T16:00:00Z,27.8398,-97.0727,0.0,5.6,135.0,7.2,'11111222,11111222,11111222' 
TCOON,ioos:station:TCOON:009:1,2008-06-08T17:00:00Z,27.8398,-97.0727,0.0,5.3,151.0,8.3,'11111222,11111222,11111222' 
TCOON,ioos:station:TCOON:009:1,2008-06-08T18:00:00Z,27.8398,-97.0727,0.0,6.7,135.0,8.5,'11111222,11111222,11111222' 
TCOON,ioos:station:TCOON:009:1,2008-06-08T19:00:00Z,27.8398,-97.0727,0.0,5.6,147.0,7.7,'11111222,11111222,11111222' 
TCOON,ioos:station:TCOON:009:1,2008-06-08T20:00:00Z,27.8398,-97.0727,0.0,5.9,125.0,8.4,'11111222,11111222,11111222' 
TCOON,ioos:station:TCOON:009:1,2008-06-08T21:00:00Z,27.8398,-97.0727,0.0,6.8,131.0,13.3,'11111222,11111222,11111222' 
TCOON,ioos:station:TCOON:009:1,2008-06-08T22:00:00Z,27.8398,-97.0727,0.0,6.0,122.0,9.0,'11111222,11111222,11111222' 
TCOON,ioos:station:TCOON:009:1,2008-06-08T23:00:00Z,27.8398,-97.0727,0.0,7.3,123.0,10.0,'11111222,11111222,11111222' 
TCOON,ioos:station:TCOON:009:1,2008-06-09T00:00:00Z,27.8398,-97.0727,0.0,5.9,132.0,9.6,'11111222,11111222,11111222' 
TCOON,ioos:station:TCOON:009:1,2008-06-09T01:00:00Z,27.8398,-97.0727,0.0,5.6,142.0,8.5,'11111222,11111222,11111222' 
TCOON,ioos:station:TCOON:009:1,2008-06-09T02:00:00Z,27.8398,-97.0727,0.0,5.2,141.0,7.8,'11111222,11111222,11111222' 
TCOON,ioos:station:TCOON:009:1,2008-06-09T03:00:00Z,27.8398,-97.0727,0.0,5.3,142.0,9.1,'11111222,11111222,11111222' 
TCOON,ioos:station:TCOON:009:1,2008-06-09T04:00:00Z,27.8398,-97.0727,0.0,4.4,147.0,6.9,'11111222,11111222,11111222' 
TCOON,ioos:station:TCOON:009:1,2008-06-09T05:00:00Z,27.8398,-97.0727,0.0,7.0,151.0,10.7,'11111222,11111222,11111222' 
TCOON,ioos:station:TCOON:009:1,2008-06-09T06:00:00Z,27.8398,-97.0727,0.0,3.8,156.0,6.7,'11111222,11111222,11111222' 
TCOON,ioos:station:TCOON:009:1,2008-06-09T07:00:00Z,27.8398,-97.0727,0.0,5.4,161.0,10.7,'11111222,11111222,11111222' 
TCOON,ioos:station:TCOON:009:1,2008-06-09T08:00:00Z,27.8398,-97.0727,0.0,4.0,163.0,9.0,'11111222,11111222,11111222' 
TCOON,ioos:station:TCOON:009:1,2008-06-09T09:00:00Z,27.8398,-97.0727,0.0,2.9,173.0,4.9,'11111222,11111222,11111222' 
TCOON,ioos:station:TCOON:009:1,2008-06-09T10:00:00Z,27.8398,-97.0727,0.0,3.6,161.0,7.3,'11111222,11111222,11111222' 